Probability
0 0 0 0 0 0 1 1 0 0 0 0 0 0 0 0 0 0 0 0 0 1 1 0 0 0 0 0 0 0 1 2 2 1 1 1 1 0 1 1 1 1 0
0 0 0 0 0 0 1 1 0 0 0 0 0 0 0 0 0 0 0 0 0 1 2 1 1 0 0 0 0 0 0 1 1 1 1 1 2 2 1 2 2 2 1
0 0 0 0 0 0 1 1 0 0 0 0 0 0 0 0 0 0 0 0 0 1 2 2 2 1 1 0 0 0 0 0 0 1 1 1 2 3 3 3 3 3 3
1 0 0 0 0 0 0 0 0 0 0 0 0 0 0 0 0 0 0 0 0 0 1 1 2 2 2 1 0 0 0 0 0 1 2 1 1 2 3 3 3 3 3
1 0 0 0 0 0 0 0 0 0 0 0 0 0 0 0 0 0 0 0 0 0 0 0 1 1 2 2 1 0 0 0 0 1 2 2 1 1 1 3 3 3 3
1 0 0 0 0 0 0 0 0 0 0 0 0 0 0 0 0 0 0 0 0 0 0 0 0 0 1 1 1 0 0 0 0 0 1 1 1 0 1 2 3 3 3
0 0 0 0 0 0 0 0 0 0 0 0 0 0 0 0 0 0 0 0 0 0 0 0 0 0 0 0 0 0 0 0 0 0 0 1 1 0 0 1 1 2 2
0 0 0 0 0 0 0 0 0 0 0 0 0 0 0 0 0 0 0 0 0 0 0 0 0 0 0 0 0 0 0 0 0 0 0 0 1 1 1 1 1 1 2
0 0 0 0 0 0 0 0 0 0 0 0 0 0 0 0 0 0 0 0 0 0 0 0 0 0 0 0 0 0 0 0 0 0 0 0 1 1 2 2 2 2 2
0 0 0 0 0 0 0 0 0 0 0 0 0 0 0 0 0 0 0 0 0 0 0 0 0 0 0 0 0 0 0 0 0 0 0 0 0 1 1 2 1 1 1
0 0 0 0 0 0 0 0 0 0 0 0 0 0 0 0 0 0 0 0 0 0 0 0 0 0 0 0 0 0 0 0 1 1 1 0 0 0 0 0 0 0 0
0 0 0 0 0 0 0 0 0 0 0 0 0 0 0 0 0 0 0 0 0 0 0 0 0 0 0 0 0 0 0 0 1 1 1 0 0 0 0 0 0 0 0
0 0 0 0 0 0 0 0 0 0 0 0 0 0 0 0 0 0 0 0 0 0 0 0 0 0 0 0 0 0 0 0 0 0 0 0 0 0 0 0 0 0 0
0 0 0 0 0 0 0 0 0 0 0 0 0 0 0 0 0 0 0 0 0 0 0 0 0 0 0 0 0 0 0 0 0 0 0 0 0 0 0 0 0 0 0
0 0 0 0 0 0 0 0 0 0 0 0 0 0 0 0 0 0 0 0 0 0 0 0 0 0 0 0 0 0 0 0 0 0 0 0 0 0 0 0 0 0 0
0 0 0 0 0 0 0 0 0 0 0 0 0 0 0 0 0 0 0 0 0 0 0 0 0 0 0 0 0 0 0 0 0 0 0 0 0 0 0 0 0 0 0
0 0 0 0 0 0 0 0 0 0 0 0 0 0 0 0 0 0 0 0 0 0 0 0 0 0 0 0 0 0 0 0 0 0 0 0 0 0 0 0 0 0 0
0 0 0 0 0 0 0 0 0 0 0 0 0 0 0 0 0 0 0 0 0 0 0 0 0 0 0 0 0 0 0 0 0 0 0 0 0 0 0 0 0 0 0
0 0 0 0 0 0 0 0 0 0 0 0 0 0 0 0 0 0 0 0 0 0 0 0 0 0 0 0 0 0 0 0 0 0 0 0 0 0 0 0 0 0 0
0 0 0 0 0 0 0 0 0 0 0 0 0 0 0 0 0 0 0 0 0 0 0 0 0 0 0 0 0 0 0 0 0 0 0 0 0 0 0 0 0 0 0
0 0 0 0 0 0 0 0 0 0 0 0 0 0 0 0 0 0 0 0 0 0 0 0 0 0 0 0 0 0 0 0 0 0 0 0 0 0 0 0 0 0 0
0 0 0 0 0 0 0 0 0 0 0 0 0 0 0 0 0 0 0 0 0 0 0 0 0 0 0 0 0 0 0 0 0 0 0 0 0 0 0 0 0 0 0
0 0 0 0 0 0 0 0 0 0 0 0 0 0 0 0 0 0 0 0 0 0 0 0 0 0 0 0 0 0 0 0 0 0 0 0 0 0 0 0 0 0 0
0 0 0 0 0 0 0 0 0 0 0 0 0 0 0 0 0 0 0 0 0 0 0 0 0 0 0 0 0 0 0 0 0 0 0 0 0 0 0 0 0 0 0
0 0 0 0 0 0 0 0 0 0 0 0 0 0 0 0 0 0 0 0 0 0 0 0 0 0 0 0 0 0 0 0 0 0 0 0 0 0 0 0 0 0 0
0 0 0 0 0 0 0 0 0 0 0 0 0 0 0 0 0 0 0 0 0 0 0 0 0 0 0 0 0 0 0 0 0 0 0 0 0 0 0 0 0 0 0
Wind_Speed
2 2 2 2 1 1 1 1 1 1 1 1 1 2 2 3 3 3 3 7 7 7 6 6 5 5 5 5 5 5 5 5 4 4 4 4 5 4 5 5 6 6 6
2 2 2 2 1 1 1 1 2 2 1 1 1 2 2 2 3 4 4 4 7 7 6 6 5 5 5 4 5 5 5 5 5 4 4 4 4 4 4 4 5 5 6
3 2 2 1 1 1 0 0 2 2 2 2 2 2 2 2 2 3 4 3 3 5 6 6 5 5 4 4 4 4 4 5 4 4 4 4 4 4 4 4 4 5 5
3 2 2 1 1 1 1 1 1 2 1 1 1 1 1 2 3 3 3 3 2 2 4 6 5 5 4 3 3 3 3 4 4 4 4 4 3 3 3 3 4 4 5
3 2 2 1 2 1 1 1 1 2 2 1 1 1 1 1 2 2 3 3 3 3 2 3 4 4 4 4 3 3 3 3 3 3 3 3 3 3 3 3 4 4 4
3 2 2 2 2 1 1 1 1 2 2 1 1 1 1 1 1 2 2 2 2 2 2 2 2 2 3 3 3 3 3 2 2 3 3 3 3 3 3 3 3 3 4
3 3 2 2 2 2 1 2 1 2 1 2 2 1 1 1 1 1 1 1 1 1 2 2 1 1 1 3 4 4 4 3 2 2 3 4 4 4 3 2 3 3 4
3 3 3 2 2 2 2 2 2 1 1 1 2 2 0 1 1 1 1 1 1 1 1 1 1 1 1 1 1 3 4 4 3 4 4 4 4 4 4 3 3 4 4
3 3 3 2 2 2 2 2 2 2 1 1 1 2 2 2 0 1 2 2 1 1 1 1 1 1 1 1 1 1 3 4 5 5 5 5 5 4 4 4 4 4 5
3 3 3 3 2 1 2 2 2 1 2 1 1 0 1 2 2 1 1 1 1 1 1 1 1 1 1 1 2 1 2 3 5 5 6 6 6 5 5 5 5 5 5
3 3 3 3 2 1 2 2 1 1 1 2 2 1 1 0 1 2 2 2 1 2 1 1 1 1 1 1 1 1 1 4 5 6 7 7 7 7 6 6 6 6 6
2 2 3 3 2 2 2 2 2 2 1 1 1 1 1 1 2 1 2 2 2 2 2 2 1 1 1 1 1 1 2 4 6 7 7 7 7 8 8 8 7 7 7
2 3 2 2 2 2 2 2 2 1 1 1 1 1 1 1 1 1 1 1 1 1 1 2 2 2 2 2 1 1 2 4 6 7 8 7 7 8 8 8 8 8 8
3 4 3 2 2 2 2 2 1 1 1 1 2 1 1 1 1 1 2 2 1 1 1 3 2 2 2 1 3 3 3 5 6 7 8 8 8 8 8 8 8 9 9
3 4 4 3 2 2 2 2 1 1 1 1 2 2 1 1 1 1 1 2 3 2 3 3 1 2 2 2 3 2 3 5 7 7 8 8 8 8 9 8 8 9 9
4 5 4 4 3 3 3 2 2 2 2 2 1 2 1 1 1 1 2 1 2 2 3 2 2 2 2 2 4 2 3 6 7 8 9 8 9 9 9 9 9 9 10
5 5 5 5 4 4 3 3 2 2 2 2 2 2 2 2 1 2 2 2 2 2 3 3 2 1 2 3 3 3 3 3 4 8 9 10 10 9 10 10 10 10 10
4 4 5 4 4 4 4 4 3 3 3 3 3 3 3 2 2 2 2 3 3 3 3 4 2 2 3 3 3 3 3 3 3 7 9 10 10 10 10 10 10 10 10
4 4 4 4 4 4 4 3 4 3 3 4 3 4 4 3 3 3 3 3 3 3 3 3 3 2 2 2 2 3 3 3 4 5 8 9 10 11 11 11 10 10 10
5 4 4 4 4 4 4 3 3 3 3 3 3 3 4 4 4 4 3 3 3 3 3 3 3 3 2 2 2 2 3 2 3 3 5 7 9 10 11 11 10 9 9
4 4 4 3 3 3 3 3 3 3 3 3 3 3 4 5 6 4 3 3 3 3 3 3 3 3 3 2 3 2 3 3 3 3 3 3 4 4 5 8 9 9 10
4 4 4 4 3 3 4 4 3 3 3 3 3 3 3 4 6 6 7 7 6 5 4 4 4 4 5 4 3 2 2 2 3 2 2 4 3 4 4 4 8 10 10
4 3 3 3 3 4 5 5 4 3 3 3 3 3 3 3 4 3 5 6 6 9 9 6 6 6 5 4 3 3 3 3 5 3 2 5 3 5 4 5 9 10 10
4 3 3 3 3 4 5 5 4 3 3 3 4 4 4 4 4 4 3 3 4 5 7 6 6 6 5 4 4 4 4 3 3 2 2 4 4 4 4 4 8 10 10
3 3 3 3 3 4 5 5 4 3 3 4 3 3 3 4 5 5 3 4 4 5 6 8 8 6 6 6 4 2 2 2 4 3 2 3 3 3 4 3 5 8 9
3 3 3 3 3 4 5 6 5 3 3 3 2 3 4 4 5 4 3 3 5 5 3 4 5 5 5 5 7 4 4 3 3 3 2 2 2 2 4 3 2 2 4
Wind_Direction
139 139 138 139 152 153 183 183 158 130 109 92 101 117 116 105 109 105 95 92 89 89 88 84 82 78 78 75 72 67 62 55 53 54 52 49 48 40 40 35 30 27 23
132 133 125 127 127 139 195 184 138 127 113 87 69 71 89 99 105 113 115 98 92 89 87 83 80 76 73 70 66 67 63 54 53 50 43 42 39 35 37 32 28 24 19
120 123 126 125 129 127 155 87 100 99 98 88 69 54 53 58 89 109 113 118 104 89 88 87 81 74 69 66 62 65 62 53 53 48 44 35 31 24 20 19 20 17 13
118 119 121 124 114 98 90 98 108 103 98 95 82 65 58 51 60 82 94 104 111 108 98 96 87 73 65 62 60 60 58 52 51 44 36 26 22 18 9 4 9 5 5
125 117 122 126 111 96 94 119 102 121 119 95 87 85 84 94 91 86 91 94 97 106 118 116 104 87 68 58 50 42 43 46 41 34 21 11 5 360 348 352 356 360 4
132 124 120 116 109 103 95 102 115 106 118 123 97 70 76 108 96 94 105 107 107 116 119 123 131 110 89 70 46 28 20 21 16 12 11 357 342 335 328 340 346 350 350
135 136 132 125 119 122 131 116 105 113 112 111 95 51 3 96 122 128 118 111 110 127 130 119 129 124 122 81 50 31 16 2 347 344 348 342 333 326 310 320 324 327 335
140 140 137 137 133 127 117 106 103 114 146 142 139 127 102 336 308 184 152 152 160 135 139 127 125 126 125 134 72 37 10 355 344 340 329 327 322 324 323 308 303 313 319
132 126 134 137 150 146 148 139 133 125 152 212 160 143 153 197 235 262 215 180 174 176 182 155 139 147 138 133 140 39 359 336 322 318 326 327 315 312 313 320 320 318 315
139 135 134 134 142 139 143 154 134 145 152 183 241 218 190 156 153 204 273 229 202 207 214 202 166 189 166 149 135 93 345 316 310 306 308 314 317 309 309 311 319 321 321
147 146 140 137 143 145 147 151 147 162 173 183 187 202 244 265 175 163 218 239 259 247 230 221 199 198 183 168 170 177 298 295 298 297 297 300 309 314 307 307 310 314 312
149 152 146 144 149 153 161 170 175 183 199 200 205 198 185 192 205 180 194 212 234 247 250 238 215 203 186 172 178 160 293 291 291 293 291 295 301 307 312 308 304 306 307
170 177 164 159 161 170 168 164 168 189 193 188 201 222 214 213 199 190 172 205 235 254 244 249 223 204 196 177 191 218 269 290 292 289 287 293 300 302 303 303 302 301 302
180 173 165 164 167 169 169 164 166 192 185 191 211 212 226 234 204 191 175 163 235 267 244 245 239 208 204 195 217 224 249 271 284 287 287 290 294 294 294 293 297 298 299
169 164 165 167 175 172 169 162 177 194 184 204 209 205 212 227 203 205 181 166 175 228 249 237 230 219 209 212 229 225 234 255 271 279 283 286 288 287 287 289 293 295 293
163 162 167 169 179 176 176 173 176 186 184 203 205 202 215 215 205 203 198 205 198 203 240 234 229 225 213 226 241 238 242 265 263 270 276 278 278 280 282 284 286 287 287
160 166 170 173 178 183 181 180 189 187 195 200 201 209 222 212 215 220 213 214 221 211 242 263 250 229 219 229 251 251 250 248 258 265 273 276 275 277 280 281 283 284 284
166 170 171 176 178 184 183 182 195 201 203 204 207 207 223 214 218 222 217 218 221 218 225 252 258 252 250 236 239 254 260 257 252 263 270 275 276 278 281 282 281 280 279
164 170 172 179 182 187 189 193 196 203 212 213 206 208 218 210 226 227 224 224 226 232 227 233 251 252 258 252 262 267 265 263 265 264 271 274 274 277 280 281 280 279 278
163 174 178 182 185 189 189 195 196 203 215 219 212 215 219 211 217 218 222 225 227 231 230 235 245 251 251 253 243 259 279 270 270 274 275 276 274 276 278 279 278 276 276
169 173 175 181 187 189 192 192 195 205 212 220 220 222 227 221 220 222 225 220 219 229 232 234 242 249 245 241 240 236 256 277 274 263 271 274 275 271 271 272 270 270 275
168 170 178 182 193 203 194 196 204 209 213 214 223 227 230 224 227 235 240 237 227 226 230 234 242 241 247 242 233 232 246 275 283 278 290 285 272 268 261 250 268 274 276
168 177 183 184 199 205 196 202 214 212 218 222 227 226 231 232 228 226 244 250 247 247 245 239 239 244 243 238 232 239 236 242 252 258 286 283 273 270 269 270 274 275 278
175 185 193 198 202 212 202 206 216 215 224 228 228 221 218 224 227 226 230 243 247 249 248 240 234 240 240 229 221 232 239 257 273 263 228 267 276 273 280 270 270 274 282
184 190 188 196 202 209 205 205 203 202 221 231 230 225 222 227 237 234 223 240 256 261 264 255 251 250 250 258 254 244 237 255 274 266 223 239 271 289 286 272 268 276 288
183 185 194 196 199 204 212 209 204 198 216 230 233 231 235 242 242 243 228 229 247 253 249 259 259 260 255 254 253 230 217 235 259 266 230 220 268 310 301 279 269 285 288